Dewpoint
54 54 54 55 55 54 54 54 54 54 54 54 54 54 54 55 55 43 24 32 41 60 63 60 52 48 45 43 44 43 39 37 37 34 34 34 32 32 29 27 26 28 37 39 42
52 52 52 53 54 55 55 54 54 54 54 54 54 54 54 55 51 43 44 55 58 61 49 52 49 47 44 43 42 41 39 37 35 36 35 36 36 35 29 29 25 28 36 44 42
51 52 52 52 52 52 53 54 54 54 54 54 53 54 54 54 39 22 55 57 57 61 38 47 46 46 43 42 42 41 36 37 36 38 40 37 35 36 28 29 30 26 31 42 41
49 49 50 51 51 51 51 52 53 54 54 54 54 54 54 51 9 14 63 67 65 54 35 35 43 43 41 39 40 38 40 39 37 38 39 37 37 34 32 31 32 30 36 41 40
51 51 50 49 49 50 51 51 52 53 54 54 54 54 51 45 27 15 57 59 57 48 36 28 32 40 39 41 40 38 38 38 39 39 38 37 35 34 33 34 31 30 39 41 40
52 52 52 51 50 49 50 52 52 52 53 54 54 54 48 33 24 29 24 25 31 45 41 32 29 29 29 30 33 40 39 40 40 40 39 36 36 36 36 36 33 31 38 41 40
52 52 52 52 52 51 50 50 52 53 52 52 53 49 45 41 29 29 28 29 27 40 37 37 31 28 28 25 26 28 28 30 32 35 35 36 33 32 32 32 31 30 32 39 41
51 52 51 51 52 51 51 51 50 50 51 52 52 49 42 44 44 41 31 17 18 23 33 32 33 29 27 26 25 23 26 24 28 32 34 30 30 30 31 31 32 32 31 35 38
52 52 50 50 51 51 52 52 50 49 50 51 47 46 40 44 42 38 28 18 8 13 22 26 30 27 25 24 22 24 21 22 23 28 29 29 27 30 33 31 31 31 33 31 34
51 51 51 51 51 52 52 51 49 49 48 46 44 43 42 27 20 25 25 23 22 20 24 24 28 24 22 23 16 16 19 21 23 25 27 27 29 30 31 32 31 31 31 33 32
50 51 51 51 51 52 50 43 37 44 46 40 37 34 26 34 29 28 25 21 28 26 18 27 27 25 24 22 21 17 19 18 20 25 27 28 29 30 30 31 30 32 32 33 36
51 50 50 51 51 52 47 40 37 40 37 39 40 41 42 42 36 30 24 21 26 15 21 23 22 28 28 25 22 22 22 23 25 26 27 26 26 27 29 29 30 31 33 33 40
52 51 51 51 52 45 41 41 42 41 37 36 36 35 35 36 35 32 27 26 17 17 16 15 18 27 29 23 22 22 20 21 22 26 28 27 27 28 28 31 34 34 34 37 40
52 52 51 52 44 41 40 38 37 37 30 24 32 32 34 32 30 32 30 28 22 10 16 17 16 20 22 20 19 21 24 23 24 26 25 29 25 26 28 28 28 30 31 34 40
52 50 51 51 44 41 39 42 43 37 4 6 20 32 34 27 22 21 29 27 25 14 14 12 14 15 20 18 19 21 25 26 28 26 26 25 25 25 27 26 27 27 29 33 41
51 50 51 46 45 43 45 45 40 31 15 13 18 20 24 31 30 28 27 26 26 21 15 8 16 15 16 21 21 20 26 26 25 27 24 24 25 24 25 25 26 28 29 40 41
51 50 49 47 40 43 45 40 27 22 19 15 21 22 15 18 27 29 26 21 20 19 18 17 13 16 16 19 21 19 24 22 22 24 24 25 25 25 27 29 27 28 31 41 45
51 50 48 46 45 45 41 34 22 20 20 22 23 20 18 23 24 27 26 21 18 18 16 15 14 15 16 14 15 16 21 24 20 21 22 25 24 24 28 29 31 30 34 43 46
49 44 44 43 46 45 39 27 22 23 22 24 23 20 20 24 27 28 25 23 17 18 15 15 15 19 15 15 14 15 21 25 21 26 22 24 26 28 28 28 35 38 40 43 46
43 42 40 42 46 44 35 23 27 27 26 26 21 23 21 22 27 28 27 30 27 18 19 20 15 16 16 16 16 15 19 15 18 16 18 23 23 24 24 30 37 40 40 44 47
39 37 37 47 45 39 27 24 27 27 26 26 26 22 23 27 29 27 27 30 32 31 28 15 18 19 16 16 13 13 13 18 22 24 22 20 23 27 23 29 36 38 41 44 47
36 30 41 46 36 34 28 30 33 28 28 28 28 26 23 27 27 25 27 30 32 31 29 29 16 13 17 19 16 14 12 13 15 18 22 23 22 28 26 27 37 39 42 44 47
36 35 41 43 29 29 30 29 29 27 27 25 26 25 24 22 25 26 30 32 29 30 31 32 23 17 18 18 20 13 11 11 17 24 21 20 21 33 32 28 38 39 42 44 47
38 29 33 38 37 33 30 29 29 29 27 26 25 24 23 25 25 26 24 27 28 28 37 31 31 18 13 16 18 19 13 12 16 16 17 20 19 29 36 36 38 40 42 44 46
34 30 35 29 28 31 29 29 26 27 28 26 25 27 24 25 29 28 28 30 25 33 31 29 27 29 17 13 22 22 18 14 15 14 17 18 19 24 36 37 38 40 43 44 46
33 35 37 33 33 30 27 27 29 29 30 26 28 29 29 24 28 29 32 32 29 31 31 31 25 31 29 15 12 13 22 17 19 19 21 23 22 26 34 41 42 41 42 43 45
41 41 37 31 30 25 25 29 28 31 31 31 30 26 26 27 32 31 34 37 35 31 30 30 28 24 26 21 16 15 15 20 22 24 22 21 23 31 36 40 42 43 41 42 44
Lifted_Index
12 12 12 12 11 11 11 11 11 11 10 10 10 10 10 9 8 6 4 4 6 6 3 1 1 2 2 2 2 2 2 2 2 2 1 1 1 1 1 1 1 1 1 1 1
13 13 13 12 12 12 12 11 11 11 11 10 10 10 10 9 6 4 4 4 5 6 4 2 1 2 2 2 2 2 2 2 2 2 1 1 1 1 1 1 1 1 1 1 2
14 14 14 13 13 13 13 12 12 11 11 11 11 10 10 8 5 3 3 3 3 4 4 3 2 2 2 2 1 2 2 2 2 2 1 1 1 1 1 1 1 0 1 2 2
15 15 15 14 14 14 14 13 12 12 11 11 11 11 11 9 6 5 3 2 1 3 4 3 2 2 2 1 2 2 2 2 2 2 2 1 1 1 1 1 1 1 1 2 2
15 15 15 15 15 15 14 14 13 12 12 11 11 11 11 9 8 7 5 3 2 3 4 3 3 2 2 2 2 2 2 2 2 2 2 1 1 1 1 1 1 2 2 2 2
15 15 15 15 15 15 15 14 14 13 13 12 11 11 10 10 10 9 8 7 5 4 4 4 3 3 3 2 2 2 2 2 3 2 2 1 1 1 1 1 2 2 2 1 2
15 15 15 15 15 15 15 15 14 14 13 13 12 11 11 10 11 11 10 9 7 6 5 5 4 4 4 3 3 3 2 3 4 3 2 1 2 2 2 2 2 2 1 1 1
15 15 15 15 15 15 15 15 15 15 14 13 13 12 12 11 11 11 10 9 8 8 7 6 5 5 5 4 3 3 3 4 4 3 3 2 3 3 2 3 2 2 1 1 1
15 15 15 15 15 14 14 15 15 15 15 14 13 13 12 12 11 9 9 8 8 8 8 6 6 6 5 4 3 3 3 3 3 3 3 4 4 4 3 3 2 1 1 1 1
16 16 15 15 14 14 14 14 15 14 14 14 13 13 12 11 10 9 8 8 8 8 7 6 6 6 6 4 3 3 3 3 3 3 3 4 5 4 3 3 2 2 1 1 1
17 16 15 14 13 13 13 14 13 13 13 14 13 13 12 11 10 10 9 8 8 7 6 6 5 6 5 5 4 3 3 3 3 3 3 4 4 4 3 3 3 2 2 1 1
15 14 12 11 10 10 11 12 12 12 13 13 13 13 12 11 10 9 9 8 7 6 6 5 5 5 5 4 4 3 3 2 3 3 3 3 4 3 3 3 3 2 2 1 1
10 9 7 6 6 7 8 8 9 11 12 12 12 12 12 11 9 8 8 8 6 5 5 4 4 5 5 4 4 3 3 2 2 2 3 3 3 3 3 3 2 2 2 1 1
5 4 4 3 4 5 5 5 6 7 9 10 11 11 11 10 9 8 8 7 6 5 5 5 5 5 5 4 4 3 3 3 3 2 2 3 3 3 3 2 2 2 2 2 2
3 3 2 3 4 4 4 4 3 3 5 7 9 9 10 10 9 8 7 7 6 6 6 6 6 5 5 4 4 3 3 4 4 3 2 2 2 2 2 2 2 2 2 2 2
2 2 2 3 4 4 4 3 2 2 3 5 7 8 9 9 9 8 7 7 6 6 6 6 6 6 6 5 4 4 4 4 4 3 2 2 2 2 2 2 2 2 2 2 2
2 2 2 3 3 3 3 2 2 2 3 4 5 6 7 8 8 8 7 6 6 6 5 6 6 7 7 6 5 5 4 3 2 2 2 2 2 1 2 2 2 2 2 2 2
2 2 3 3 3 3 2 1 1 2 2 3 4 5 5 6 7 7 6 6 6 6 5 4 5 6 7 7 6 5 4 3 1 1 2 2 2 2 2 3 2 2 2 2 2
3 3 3 3 2 2 1 1 1 1 1 2 3 3 4 5 5 6 6 6 6 6 5 4 4 5 7 7 6 5 4 4 3 2 2 2 2 2 3 3 2 2 2 2 1
3 3 2 1 1 1 1 1 1 1 1 2 2 3 4 4 5 5 6 6 6 6 6 5 4 5 5 6 6 5 5 4 3 2 1 1 2 2 3 2 2 2 1 1 1
3 3 1 0 0 1 1 1 1 1 1 1 2 3 4 5 5 5 5 5 6 6 6 5 4 4 4 5 5 5 5 4 3 2 1 1 2 2 3 2 2 2 1 1 1
3 2 1 0 0 1 1 1 1 1 1 2 2 4 5 5 6 5 4 5 6 6 6 5 5 4 4 5 5 5 5 4 4 3 2 1 1 2 3 3 2 2 1 1 1
2 2 1 0 0 1 1 1 1 1 1 2 3 3 4 5 6 6 5 5 6 6 6 6 6 4 3 4 5 5 5 4 4 3 3 2 1 2 3 3 2 2 1 1 1
2 2 1 0 1 1 1 1 1 1 1 2 2 2 3 4 6 6 5 5 7 7 7 7 6 5 3 4 4 4 5 5 4 3 3 2 2 2 2 2 2 1 1 1 1
2 2 1 1 1 1 1 1 1 1 1 1 1 2 2 4 5 6 6 6 6 7 8 8 7 5 4 4 4 4 4 4 4 3 3 3 2 2 2 2 2 1 0 0 1
2 2 2 1 1 1 1 1 1 1 1 1 1 1 2 3 4 6 6 6 6 6 7 8 7 5 4 4 4 4 4 4 4 3 3 3 2 2 2 2 2 1 0 1 1
3 2 2 1 1 1 1 1 1 1 1 1 1 1 2 2 4 5 6 6 6 6 7 7 6 5 4 3 4 4 3 3 3 3 3 3 2 2 2 2 2 1 0 1 1